Regional Weather Roundup
Issued by NWS

Home | Current Version | Previous Version | Text Only | Print | Product List | Glossary Off
Versions: 1 2 3 4 5 6 7 8 9 10 11 12 13 14 15 16 17 18 19 20 21 22 23 24 25 26 27

000
ASUS45 KCYS 220610
RWRWY

WYOMING REGIONAL WEATHER ROUNDUP
NATIONAL WEATHER SERVICE CHEYENNE WY
1200 AM MDT MON MAY 22 2017

NOTE:  "FAIR" INDICATES FEW OR NO CLOUDS BELOW 12,000 FEET
WITH NO SIGNIFICANT WEATHER AND/OR OBSTRUCTIONS TO VISIBILITY.

WYZ001-220700-
YELLOWSTONE NATIONAL PARK

CITY           SKY/WX    TMP DP  RH WIND       PRES   REMARKS
LK YELLOWSTONE   N/A     30  26  85 CALM      30.36S
6HR MIN TEMP:  30; 6HR MAX TEMP:  52;

W YELLOWSTONE  NOT AVBL

$$
WYZ002>013-054>058-071-098>099-220700-
NORTHERN WYOMING

CITY           SKY/WX    TMP DP  RH WIND       PRES   REMARKS
JACKSON        FAIR      39  28  65 CALM      30.31R
CODY           FAIR      48  36  63 SW9       30.24
GREYBULL       FAIR      51  31  46 SE6       30.17S
6HR MIN TEMP:  50; 6HR MAX TEMP:  68;

WORLAND        FAIR      44  37  76 S8        30.19S
6HR MIN TEMP:  44; 6HR MAX TEMP:  66;

SHERIDAN       CLOUDY    50  37  61 W10       30.14F
6HR MIN TEMP:  43; 6HR MAX TEMP:  63;

BUFFALO        FAIR      45  30  55 SW8       30.18F
6HR MIN TEMP:  44; 6HR MAX TEMP:  59;

GILLETTE       FAIR      37  35  92 SW6       30.14F WCI  32
6HR MIN TEMP:  37; 6HR MAX TEMP:  61;

HULETT         FAIR      41  37  87 S9        30.13F
NEWCASTLE      FAIR      41  37  87 CALM      30.17S

$$
WYZ014>020-022>026-101>103-220700-
CENTRAL WYOMING

CITY           SKY/WX    TMP DP  RH WIND       PRES   REMARKS
BIG PINEY      FAIR      34  33  96 CALM      30.34S
6HR MIN TEMP:  34; 6HR MAX TEMP:  57;

PINEDALE       FAIR      36  34  93 NW3       30.35S
DUBOIS         FAIR      36  32  87 NW8       30.31S WCI  29
LANDER         FAIR      48  34  58 SW6       30.25F
6HR MIN TEMP:  46; 6HR MAX TEMP:  59;

RIVERTON       FAIR      45  37  73 W8        30.26S
6HR MIN TEMP:  44; 6HR MAX TEMP:  59;

CASPER         FAIR      37  34  89 SW6       30.24F WCI  32
6HR MIN TEMP:  37; 6HR MAX TEMP:  58; 6HR PCP: TRACE;

DOUGLAS        MOCLDY    45  36  70 CALM      30.23F
6HR MIN TEMP:  43; 6HR MAX TEMP:  59;


$$
WYZ021-027>030-104>119-220700-
SOUTHERN WYOMING

CITY           SKY/WX    TMP DP  RH WIND       PRES   REMARKS
EVANSTON       FAIR      43  39  86 SW8       30.32S
6HR MIN TEMP:  42; 6HR MAX TEMP:  59;

KEMMERER         N/A     41  36  81 SE5       30.35R
ROCK SPRINGS   FAIR      41  36  82 W7        30.31S
6HR MIN TEMP:  41; 6HR MAX TEMP:  55; 6HR PCP: TRACE;

DIXON            N/A     37  35  91 NE5       30.32S WCI  34
RAWLINS        FAIR      36  32  85 N5        30.29S WCI  32
6HR MIN TEMP:  36; 6HR MAX TEMP:  54;

LARAMIE        FAIR      34  32  92 W7        30.29R WCI  28
6HR MIN TEMP:  34; 6HR MAX TEMP:  47; 6HR PCP:  0.01;

CHEYENNE       FAIR      40  36  86 W12       30.26S WCI  33
6HR MIN TEMP:  40; 6HR MAX TEMP:  49;

TORRINGTON     FAIR      44  43  96 W6        30.19S
6HR MIN TEMP:  44; 6HR MAX TEMP:  58; 6HR PCP:  0.01;

PINE BLUFFS    FAIR      37  37 100 W7        30.24S WCI  32

$$




USA.gov is the U.S. government's official web portal to all federal, state and local government web resources and services.